This demonstration page uses our WeatherBlox Daily Observations layout. Learn more.

Left ArrowRight Arrow

38.20091, -84.87328

Hourly Observations for August 6, 2018

Temp ( °F °C ) Dew Point ( °F °C ) Humidity (%) Winds ( mph kmh ) Pressure ( in mb ) Visibility ( mi km ) Precip ( " mm )
12:53 am 00:53 Clear 76 24.4 70 21.1 82 82 Calm 30.16 1021 10 16 0.00 0.00
1:53 am 01:53 Clear 73 22.8 70 21.1 90 90 Calm 30.14 1021 10 16 0.00 0.00
2:53 am 02:53 Mostly Clear 73 22.8 69 20.6 87 87 Calm 30.13 1020 10 16 0.00 0.00
3:53 am 03:53 Clear 71 21.7 68 20 90 90 Calm 30.11 1020 10 16 0.00 0.00
4:53 am 04:53 Clear 71 21.7 68 20 90 90 Calm 30.11 1020 10 16 0.00 0.00
5:53 am 05:53 Clear 71 21.7 68 20 90 90 Calm 30.12 1020 10 16 0.00 0.00
6:53 am 06:53 Sunny 70 21.1 67 19.4 90 90 Calm 30.13 1020 10 16 0.00 0.00
7:53 am 07:53 Sunny 73 22.8 70 21.1 90 90 Calm 30.14 1021 8 13 0.00 0.00
8:53 am 08:53 Sunny 78 25.6 71 21.7 79 79 S 5 7 30.14 1021 10 16 0.00 0.00
9:53 am 09:53 Sunny 81 27.2 71 21.7 72 72 WSW 5 7 30.14 1021 10 16 0.00 0.00
10:53 am 10:53 Cloudy 82 27.8 72 22.2 72 72 S 3 6 30.15 1021 10 16 0.00 0.00
11:53 am 11:53 Sunny 85 29.4 73 22.8 68 68 VRB 7 11 30.14 1021 10 16 0.00 0.00
12:53 pm 12:53 Partly Cloudy 87 30.6 74 23.3 65 65 W 6 9 30.13 1020 10 16 0.00 0.00
1:53 pm 13:53 Mostly Cloudy 87 30.6 72 22.2 61 61 SW 5 7 30.11 1020 10 16 0.00 0.00
2:53 pm 14:53 Mostly Sunny 88 31.1 72 22.2 59 59 SW 7 11 30.08 1019 10 16 0.00 0.00
3:53 pm 15:53 Mostly Cloudy 89 31.7 72 22.2 57 57 SW 10 17 30.06 1018 10 16 0.00 0.00
4:53 pm 16:53 Partly Cloudy 88 31.1 71 21.7 57 57 W 6 9 30.04 1017 10 16 0.00 0.00
5:53 pm 17:53 Mostly Sunny 89 31.7 71 21.7 55 55 WSW 6 9 30.02 1017 10 16 0.00 0.00
6:53 pm 18:53 Sunny 88 31.1 69 20.6 54 54 WSW 7 11 30.02 1017 10 16 0.00 0.00
7:53 pm 19:53 Sunny 86 30 71 21.7 61 61 W 3 6 30.02 1017 10 16 0.00 0.00
8:53 pm 20:53 Clear 82 27.8 71 21.7 69 69 SW 3 6 30.02 1017 10 16 0.00 0.00
9:53 pm 21:53 Clear 77 25 71 21.7 82 82 Calm 30.04 1017 10 16 0.00 0.00
10:53 pm 22:53 Clear 77 25 71 21.7 82 82 SW 3 6 30.04 1017 10 16 0.00 0.00
11:53 pm 23:53 Clear 77 25 72 22.2 85 85 Calm 30.04 1017 10 16 0.00 0.00

Powered by AerisWeather